[[{"header":{"parameterUnit":"m.s-1","parameterCategory":1,"la1":30.2991,"la2":30.254,"lo1":-89.0895,"lo2":-89.0444,"dy":0.0017,"dx":0.0017,"nx":28,"ny":28,"refTime":"2023-10-30T03:00:00:Z","depth":0,"parameterNumber":2,"parameterNumberName":"U-component_of_WINDS"},"data":[0,0,0,0,0,0,0,0,0,0,0,0,0,0,0,0,0,0,0,0,0,0,0,0,0,0,0,0,0,0,0,0,0,0,0,0,0,0,0,0,0,0,0,0,0,0,0,0,0,0,0,0,0,0,0,0,0,0,0.6243,0.6243,0,0.6244,0.6244,0.6245,0.6246,0.6246,0.6246,0.6246,0.6248,0.6248,0.6248,0,0,0,0,0,0,0,0,0,0,0,0,0,0.6244,0.6244,0.6243,0.6243,0.6243,0.6244,0.6244,0.6245,0.6246,0.6246,0.6246,0.6246,0.6248,0.6248,0.6248,0,0,0,0,0,0,0,0,0,0,0,0,0,0.6244,0.6244,0.6243,0.6244,0.6244,0.6244,0.6244,0.6245,0.6246,0.6246,0.6246,0.6246,0.6248,0.6248,0.6248,0.6248,0,0,0.6249,0.6249,0,0,0,0,0,0,0,0,0.6244,0.6244,0.6244,0.6244,0.6244,0.6245,0.6246,0.6246,0.6246,0.6245,0.6246,0.6246,0.6247,0.6247,0.6248,0.6248,0.6248,0.6249,0.6249,0.6249,0.6249,0,0,0,0,0,0,0,0.6244,0.6244,0.6244,0.6244,0.6244,0.6245,0.6245,0.6246,0.6246,0.6245,0.6245,0.6246,0.6247,0.6248,0.6248,0.6248,0.6249,0.6249,0.6249,0.6249,0.6252,0.6252,0,0,0,0,0,0,0.6244,0.6244,0.6243,0.6244,0.6244,0.6245,0.6245,0.6245,0.6246,0.6246,0.6246,0.6246,0.6247,0.6248,0.6248,0.6249,0.6249,0.6249,0.6249,0.6252,0.6252,0.6252,0,0,0,0,0,0,0.6244,0.6244,0.6243,0.6244,0.6244,0.6245,0.6245,0.6245,0.6245,0.6246,0.6247,0.6246,0.6247,0.6248,0.6249,0.6249,0.6249,0.6249,0.6252,0.6252,0.6252,0.625,0,0,0,0,0,0,0.6244,0.6243,0.6243,0.6244,0.6244,0.6243,0.6244,0.6245,0.6245,0.6245,0.6246,0.6247,0.6248,0.6248,0.6249,0.6249,0.6249,0.6251,0.6252,0.6252,0.625,0.625,0.625,0,0,0,0,0,0.6244,0.6242,0.6243,0.6242,0.6243,0.6243,0.6243,0.6244,0.6245,0.6245,0.6246,0.6247,0.6249,0.6249,0.6249,0.6249,0.6251,0.6252,0.6252,0.625,0.625,0.625,0,0,0,0,0,0,0.624,0.6242,0.6243,0.6241,0.6242,0.6244,0.6243,0.6244,0.6245,0.6245,0.6247,0.6247,0.6248,0.6249,0.6248,0.625,0.6251,0.6251,0.6249,0.6249,0.6249,0.6249,0.6249,0,0,0,0,0,0.6239,0.6239,0.6241,0.6239,0.624,0.6241,0.6242,0.6243,0.6244,0.6244,0.6245,0.6247,0.6249,0.6249,0.625,0.6251,0.6252,0.6252,0.6252,0.6252,0.6252,0.6254,0.6254,0.6252,0.6252,0.6252,0,0,0.6237,0.6238,0.6238,0.6239,0.6239,0.624,0.6242,0.6242,0.6243,0.6244,0.6245,0.6247,0.6249,0.625,0.6251,0.6251,0.6253,0.6252,0.6252,0.6252,0.6254,0.6254,0.6254,0.6252,0.6252,0.6252,0,0,0.6234,0.6234,0.6233,0.6235,0.6237,0.6238,0.6238,0.624,0.6241,0.6242,0.6244,0.6246,0.6248,0.625,0.6251,0.6252,0.6253,0.6252,0.6252,0.6254,0.6254,0.6255,0.6256,0.6256,0.6252,0.6252,0.6252,0,0.6231,0.6231,0.6233,0.6234,0.6235,0.6237,0.6238,0.6239,0.6241,0.6242,0.6243,0.6247,0.6248,0.6251,0.6251,0.6252,0.6253,0.6251,0.6254,0.6254,0.6255,0.6256,0.6256,0.6252,0.6252,0.6252,0.6252,0,0.6228,0.6229,0.6228,0.6231,0.6232,0.6232,0.6236,0.6237,0.6239,0.6241,0.6243,0.6246,0.6248,0.6249,0.625,0.6253,0.6253,0.6254,0.6254,0.6255,0.6256,0.6256,0.6252,0.6252,0.6252,0.6252,0,0,0.622,0.6226,0.6226,0.6228,0.6231,0.6232,0.6234,0.6237,0.6238,0.6241,0.6243,0.6246,0.6247,0.6249,0.6251,0.6253,0.6255,0.6254,0.6254,0.6254,0.6259,0.6259,0.6259,0.6256,0.6256,0.6256,0.6259,0,0.6217,0.622,0.6223,0.6225,0.6226,0.623,0.6232,0.6235,0.6238,0.624,0.6243,0.6246,0.6247,0.6248,0.6251,0.6254,0.6256,0.6254,0.6259,0.6259,0.6258,0.6259,0.6258,0.6261,0.626,0.626,0.626,0,0.6214,0.6217,0.6218,0.6224,0.6225,0.6226,0.623,0.6232,0.6237,0.6239,0.6242,0.6245,0.6248,0.6249,0.6255,0.6253,0.6256,0.6259,0.6259,0.6259,0.6259,0.626,0.6261,0.6262,0.6261,0.6261,0.626,0,0.6209,0.6213,0.6215,0.6217,0.6223,0.6224,0.6227,0.6231,0.6234,0.6238,0.624,0.6244,0.6247,0.6251,0.6256,0.6255,0.6261,0.6262,0.6264,0.6264,0.6264,0.6264,0.6266,0.6266,0.6266,0.6266,0.6266,0,0.6205,0.6206,0.6213,0.6214,0.6217,0.6221,0.6224,0.6227,0.6232,0.6235,0.6239,0.6242,0.6247,0.6252,0.6256,0.6261,0.6262,0.6264,0.6265,0.6264,0.6263,0.6265,0.6265,0.6266,0.6266,0.6266,0.6266,0,0.6199,0.6203,0.6206,0.6213,0.6215,0.6216,0.6222,0.6224,0.6228,0.6232,0.6234,0.624,0.6245,0.6251,0.6258,0.626,0.6266,0.6267,0.6264,0.6264,0.6266,0.6266,0.6269,0.6271,0.627,0.627,0.627,0,0.6196,0.6197,0.6204,0.6207,0.6209,0.6213,0.6216,0.6222,0.6225,0.6232,0.6233,0.6239,0.6244,0.6253,0.6259,0.6265,0.6266,0.6267,0.6267,0.6266,0.6267,0.6267,0.6268,0.6267,0.6267,0.6267,0.6267,0,0.6191,0.6194,0.6197,0.6203,0.6206,0.621,0.6215,0.6217,0.6224,0.6228,0.6233,0.6237,0.6245,0.6252,0.6259,0.6263,0.6267,0.6267,0.6268,0.6266,0.6265,0.6266,0.6264,0.6267,0.6267,0.6267,0.6267,0.6267,0.6186,0.6188,0.6194,0.6199,0.6203,0.6208,0.6211,0.6216,0.6221,0.6228,0.6232,0.6238,0.6245,0.6255,0.626,0.6266,0.6266,0.6267,0.6268,0.6268,0.6268,0.6264,0.6267,0.6267,0.6267,0.6267,0.6267,0,0.6182,0.6186,0.6191,0.6198,0.6202,0.6205,0.6212,0.6215,0.622,0.6227,0.6232,0.624,0.6247,0.6254,0.6262,0.6265,0.6267,0.6267,0.6267,0.6268,0.6266,0.6265,0.6265,0.6265,0.6265,0.6265,0.6265,0.6265,0.618,0.6184,0.6188,0.6195,0.62,0.6206,0.6209,0.6215,0.622,0.6228,0.6234,0.6239,0.6246,0.6255,0.6262,0.6265,0.6267,0.6267,0.627,0.6268,0.6268,0.6268,0.6267,0.6267,0.6267,0.6271,0.6271,0.6271]},{"header":{"parameterUnit":"m.s-1","parameterCategory":1,"la1":30.2991,"la2":30.254,"lo1":-89.0895,"lo2":-89.0444,"dy":0.0017,"dx":0.0017,"nx":28,"ny":28,"refTime":"2023-10-30T03:00:00:Z","depth":0,"parameterNumber":3,"parameterNumberName":"V-component_of_WINDS"},"data":[0,0,0,0,0,0,0,0,0,0,0,0,0,0,0,0,0,0,0,0,0,0,0,0,0,0,0,0,0,0,0,0,0,0,0,0,0,0,0,0,0,0,0,0,0,0,0,0,0,0,0,0,0,0,0,0,0,0,-7.908,-7.9081,0,-7.9213,-7.9214,-7.9216,-7.9165,-7.9161,-7.9158,-7.9156,-7.9285,-7.9291,-7.9298,0,0,0,0,0,0,0,0,0,0,0,0,0,-7.8778,-7.8783,-7.908,-7.9081,-7.9083,-7.9213,-7.9214,-7.9216,-7.9165,-7.9161,-7.9158,-7.9154,-7.9283,-7.9291,-7.9298,0,0,0,0,0,0,0,0,0,0,0,0,0,-7.8909,-7.8785,-7.9079,-7.9073,-7.9074,-7.9212,-7.9214,-7.9217,-7.9166,-7.9161,-7.9157,-7.9152,-7.9281,-7.929,-7.9299,-7.9449,0,0,-7.9328,-7.9332,0,0,0,0,0,0,0,0,-7.8902,-7.892,-7.9073,-7.9074,-7.9075,-7.9168,-7.9155,-7.9294,-7.9167,-7.9131,-7.9155,-7.915,-7.9249,-7.9261,-7.9296,-7.9455,-7.9461,-7.9329,-7.9335,-7.9339,-7.9341,0,0,0,0,0,0,0,-7.8893,-7.8914,-7.9132,-7.9075,-7.9076,-7.9063,-7.9076,-7.9181,-7.9214,-7.9134,-7.913,-7.9147,-7.9249,-7.9287,-7.9299,-7.9463,-7.9329,-7.9337,-7.9343,-7.9347,-7.9754,-7.9759,0,0,0,0,0,0,-7.8884,-7.8907,-7.9128,-7.9136,-7.8976,-7.9072,-7.9087,-7.9142,-7.9213,-7.9219,-7.9151,-7.9144,-7.9273,-7.9288,-7.9303,-7.9485,-7.9339,-7.9348,-7.9353,-7.9749,-7.9755,-7.9761,0,0,0,0,0,0,-7.8878,-7.8904,-7.9122,-7.9021,-7.9048,-7.9082,-7.9144,-7.9147,-7.9185,-7.9226,-7.9231,-7.9184,-7.927,-7.929,-7.9414,-7.9488,-7.9352,-7.936,-7.9743,-7.9751,-7.9758,-7.9848,0,0,0,0,0,0,-7.8869,-7.8902,-7.896,-7.9023,-7.9053,-7.9233,-7.9149,-7.9153,-7.9202,-7.9195,-7.9258,-7.9264,-7.9268,-7.94,-7.9424,-7.9499,-7.9368,-7.9736,-7.9746,-7.9755,-7.9839,-7.9858,-7.9875,0,0,0,0,0,-7.8859,-7.8978,-7.8963,-7.899,-7.9127,-7.9237,-7.9255,-7.9259,-7.9209,-7.9267,-7.9293,-7.9262,-7.9477,-7.9414,-7.9439,-7.9518,-7.9732,-7.9743,-7.9755,-7.9831,-7.9854,-7.9874,0,0,0,0,0,0,-7.8921,-7.8986,-7.897,-7.9114,-7.9171,-7.9229,-7.9302,-7.9283,-7.9353,-7.9343,-7.9343,-7.9358,-7.9487,-7.9515,-7.9443,-7.9668,-7.9596,-7.9614,-7.9645,-7.9668,-7.9686,-7.9676,-7.9376,0,0,0,0,0,-7.8952,-7.9038,-7.909,-7.9211,-7.9241,-7.9267,-7.9315,-7.9314,-7.9372,-7.9395,-7.943,-7.9486,-7.9566,-7.9618,-7.9694,-7.9843,-7.9856,-7.991,-7.9928,-7.9943,-7.9957,-8.0039,-8.0064,-7.9799,-7.9799,-7.9798,0,0,-7.9015,-7.9062,-7.9115,-7.9225,-7.9269,-7.9357,-7.9287,-7.9383,-7.9448,-7.9408,-7.9529,-7.9558,-7.962,-7.9758,-7.982,-7.9785,-8.0034,-7.9957,-7.9969,-7.9976,-8.0054,-8.0079,-8.0101,-7.9807,-7.9805,-7.9804,0,0,-7.9177,-7.9221,-7.9328,-7.9375,-7.9443,-7.946,-7.9486,-7.9548,-7.9566,-7.9688,-7.9661,-7.9737,-7.9875,-7.9921,-7.9963,-8.0146,-8.012,-8.017,-8.0264,-8.0344,-8.0365,-8.0383,-8.0449,-8.0473,-8.0185,-8.0185,-8.0185,0,-7.9246,-7.938,-7.9385,-7.9484,-7.9534,-7.9506,-7.9614,-7.9658,-7.9747,-7.9781,-7.9741,-7.9916,-7.9955,-8.0105,-8.015,-8.0184,-8.0213,-8.0163,-8.0362,-8.038,-8.0398,-8.0461,-8.0485,-8.0191,-8.019,-8.019,-8.0189,0,-7.9463,-7.9556,-7.9634,-7.9725,-7.9783,-7.9886,-7.9906,-7.9964,-7.9959,-7.998,-8.0105,-8.0152,-8.0238,-8.0274,-8.0267,-8.0423,-8.0399,-8.0361,-8.0288,-8.0429,-8.0488,-8.0512,-8.0199,-8.0197,-8.0195,-8.0194,0,0,-7.9664,-7.9759,-7.9788,-7.983,-7.9905,-7.9976,-8.0078,-8.0166,-8.0216,-8.0278,-8.0364,-8.0483,-8.045,-8.0497,-8.0496,-8.0566,-8.071,-8.0519,-8.0521,-8.0554,-8.0885,-8.0913,-8.0941,-8.0694,-8.0698,-8.0702,-8.088,0,-7.9832,-8.0014,-8.0024,-8.0188,-8.0275,-8.0251,-8.0341,-8.0396,-8.0419,-8.0495,-8.0519,-8.0604,-8.0552,-8.0581,-8.065,-8.0678,-8.0776,-8.0665,-8.0772,-8.0776,-8.0758,-8.0972,-8.1002,-8.1168,-8.0903,-8.0907,-8.091,0,-8.0051,-8.0125,-8.03,-8.0366,-8.0402,-8.0482,-8.0564,-8.0637,-8.07,-8.0712,-8.0767,-8.0757,-8.0861,-8.0786,-8.093,-8.0854,-8.0899,-8.0919,-8.0926,-8.0935,-8.0851,-8.0988,-8.122,-8.1245,-8.0946,-8.0943,-8.094,0,-8.0182,-8.0324,-8.0448,-8.0484,-8.0564,-8.0621,-8.0656,-8.0715,-8.0767,-8.0838,-8.0873,-8.0954,-8.0998,-8.1061,-8.1073,-8.1017,-8.1217,-8.1143,-8.1229,-8.1229,-8.1272,-8.1269,-8.1515,-8.1301,-8.13,-8.13,-8.1299,0,-8.0368,-8.0476,-8.0508,-8.0584,-8.0705,-8.0714,-8.0833,-8.0864,-8.0917,-8.0998,-8.0981,-8.1057,-8.1068,-8.1147,-8.1157,-8.1275,-8.1295,-8.1307,-8.1308,-8.1308,-8.1307,-8.1337,-8.1326,-8.1306,-8.1305,-8.1304,-8.1303,0,-8.0533,-8.056,-8.0693,-8.0759,-8.0778,-8.0864,-8.092,-8.0992,-8.1015,-8.1118,-8.1142,-8.1177,-8.1269,-8.1288,-8.1395,-8.1402,-8.1543,-8.1532,-8.1523,-8.1522,-8.1607,-8.1599,-8.1881,-8.1919,-8.168,-8.1682,-8.1684,0,-8.065,-8.0733,-8.081,-8.0865,-8.0904,-8.0991,-8.1046,-8.1059,-8.1116,-8.1196,-8.1259,-8.135,-8.1423,-8.1571,-8.1605,-8.1688,-8.1679,-8.1773,-8.1691,-8.169,-8.1681,-8.1677,-8.1685,-8.1788,-8.179,-8.1792,-8.1794,0,-8.0855,-8.0865,-8.0946,-8.1033,-8.11,-8.1168,-8.1233,-8.1278,-8.13,-8.1365,-8.1461,-8.1518,-8.1631,-8.1721,-8.1805,-8.1839,-8.1821,-8.182,-8.1845,-8.1845,-8.1837,-8.1844,-8.1565,-8.1813,-8.1811,-8.181,-8.1809,-8.1808,-8.1,-8.1074,-8.1141,-8.1232,-8.1283,-8.1345,-8.1417,-8.1451,-8.1532,-8.1626,-8.1629,-8.1733,-8.1795,-8.1906,-8.1947,-8.2028,-8.1998,-8.2033,-8.2042,-8.2051,-8.2059,-8.1825,-8.2043,-8.2042,-8.2042,-8.2041,-8.2041,0,-8.1205,-8.1248,-8.1332,-8.1425,-8.1498,-8.1478,-8.1549,-8.161,-8.1703,-8.1764,-8.1838,-8.1949,-8.2037,-8.208,-8.2167,-8.2224,-8.2218,-8.2246,-8.2242,-8.2251,-8.208,-8.2051,-8.225,-8.225,-8.225,-8.225,-8.225,-8.225,-8.132,-8.1445,-8.1463,-8.1613,-8.1654,-8.1759,-8.1802,-8.1859,-8.1908,-8.2033,-8.2108,-8.2136,-8.219,-8.2282,-8.2362,-8.2372,-8.2405,-8.2438,-8.2444,-8.2283,-8.2262,-8.2242,-8.2214,-8.2445,-8.2445,-8.2607,-8.2609,-8.261]}]]